Hourly Weather Timiryazevo

Today, 28 September, Monday

Time Temperature Precipitation Wind Pressure Humidity
00:00 +11°C° 0.6 mm 6 mps 744 mmHg 88%
01:00 +11°C° 0.6 mm 6 mps 744 mmHg 90%
02:00 +11°C° 0 mm 6 mps 744 mmHg 93%
03:00 +11°C° 2.2 mm 6 mps 744 mmHg 93%
04:00 +12°C° 2.2 mm 5 mps 744 mmHg 94%
05:00 +12°C° 2.2 mm 5 mps 744 mmHg 95%
06:00 +12°C° 1 mm 5 mps 744 mmHg 95%
07:00 +12°C° 1 mm 5 mps 744 mmHg 94%
08:00 +12°C° 1 mm 5 mps 745 mmHg 94%
09:00 +12°C° 0.2 mm 5 mps 745 mmHg 92%
10:00 +12°C° 0.2 mm 5 mps 745 mmHg 90%
11:00 +12°C° 0.2 mm 4 mps 746 mmHg 88%
12:00 +12°C° 0.1 mm 4 mps 746 mmHg 89%
13:00 +12°C° 0.1 mm 4 mps 747 mmHg 89%
14:00 +11°C° 0.1 mm 4 mps 747 mmHg 89%
15:00 +11°C° 0.4 mm 4 mps 747 mmHg 89%
16:00 +11°C° 0.4 mm 3 mps 747 mmHg 90%
17:00 +12°C° 0.4 mm 2 mps 747 mmHg 90%
18:00 +11°C° 0 mm 3 mps 747 mmHg 90%
19:00 +11°C° 0 mm 3 mps 748 mmHg 90%
20:00 +10°C° 0 mm 3 mps 748 mmHg 91%
21:00 +10°C° 0 mm 3 mps 748 mmHg 90%
22:00 +10°C° 0 mm 3 mps 748 mmHg 89%
23:00 +9°C° 0 mm 2 mps 748 mmHg 89%

Tomorrow, 29 September, Tuesday

Time Temperature Precipitation Wind Pressure Humidity
00:00 +9°C° 0 mm 2 mps 748 mmHg 88%
01:00 +9°C° 0 mm 2 mps 749 mmHg 88%
02:00 +8°C° 0 mm 2 mps 749 mmHg 88%
03:00 +8°C° 0 mm 2 mps 748 mmHg 88%
04:00 +8°C° 0 mm 2 mps 748 mmHg 89%
05:00 +8°C° 0 mm 2 mps 748 mmHg 89%
06:00 +9°C° 0 mm 2 mps 748 mmHg 87%
07:00 +9°C° 0 mm 2 mps 748 mmHg 85%
08:00 +10°C° 0 mm 2 mps 748 mmHg 83%
09:00 +12°C° 0 mm 3 mps 748 mmHg 79%
10:00 +13°C° 0 mm 3 mps 748 mmHg 74%
11:00 +16°C° 0 mm 3 mps 748 mmHg 69%
12:00 +16°C° 0 mm 3 mps 748 mmHg 68%
13:00 +17°C° 0 mm 3 mps 747 mmHg 67%
14:00 +18°C° 0 mm 4 mps 747 mmHg 65%
15:00 +17°C° 0 mm 4 mps 747 mmHg 71%
16:00 +16°C° 0 mm 3 mps 747 mmHg 77%
17:00 +14°C° 0 mm 3 mps 746 mmHg 82%
18:00 +13°C° 0 mm 3 mps 746 mmHg 85%
19:00 +13°C° 0 mm 3 mps 746 mmHg 89%
20:00 +12°C° 0 mm 3 mps 746 mmHg 92%
21:00 +12°C° 0 mm 3 mps 746 mmHg 89%
22:00 +11°C° 0 mm 3 mps 746 mmHg 87%
23:00 +11°C° 0 mm 3 mps 745 mmHg 84%

Day after tomorrow, 30 September, Wednesday

Time Temperature Precipitation Wind Pressure Humidity
00:00 +11°C° 0 mm 3 mps 745 mmHg 82%
01:00 +10°C° 0 mm 3 mps 745 mmHg 80%
02:00 +10°C° 0 mm 3 mps 745 mmHg 79%
03:00 +9°C° 0 mm 3 mps 745 mmHg 78%
04:00 +9°C° 0 mm 3 mps 745 mmHg 78%
05:00 +9°C° 0 mm 3 mps 745 mmHg 78%
06:00 +8°C° 0 mm 4 mps 745 mmHg 75%
07:00 +8°C° 0 mm 4 mps 745 mmHg 73%
08:00 +10°C° 0 mm 4 mps 745 mmHg 71%
09:00 +10°C° 0 mm 4 mps 745 mmHg 69%
10:00 +11°C° 0 mm 4 mps 745 mmHg 68%
11:00 +12°C° 0 mm 4 mps 744 mmHg 66%
12:00 +13°C° 0 mm 5 mps 744 mmHg 64%
13:00 +14°C° 0 mm 5 mps 744 mmHg 62%
14:00 +15°C° 0 mm 5 mps 744 mmHg 61%
15:00 +14°C° 0 mm 5 mps 744 mmHg 64%
16:00 +14°C° 0 mm 4 mps 744 mmHg 67%
17:00 +13°C° 0 mm 4 mps 744 mmHg 70%
18:00 +12°C° 0 mm 4 mps 744 mmHg 71%
19:00 +11°C° 0 mm 4 mps 745 mmHg 71%
20:00 +10°C° 0 mm 4 mps 745 mmHg 72%
21:00 +10°C° 0 mm 4 mps 745 mmHg 70%
22:00 +10°C° 0 mm 4 mps 744 mmHg 68%
23:00 +10°C° 0 mm 4 mps 744 mmHg 66%

1 October, Thursday

Time Temperature Precipitation Wind Pressure Humidity
00:00 +8°C° 0 mm 5 mps 744 mmHg 65%
01:00 +8°C° 0 mm 5 mps 744 mmHg 65%
02:00 +8°C° 0 mm 5 mps 744 mmHg 65%
03:00 +8°C° 0 mm 5 mps 744 mmHg 65%
04:00 +8°C° 0 mm 5 mps 744 mmHg 66%
05:00 +8°C° 0 mm 5 mps 744 mmHg 67%
06:00 +8°C° 0 mm 5 mps 744 mmHg 66%
07:00 +9°C° 0 mm 5 mps 744 mmHg 66%
08:00 +10°C° 0 mm 5 mps 744 mmHg 65%
09:00 +11°C° 0 mm 6 mps 744 mmHg 62%
10:00 +13°C° 0 mm 6 mps 744 mmHg 59%
11:00 +15°C° 0 mm 6 mps 745 mmHg 56%
12:00 +14°C° 0 mm 6 mps 745 mmHg 58%
13:00 +14°C° 0 mm 5 mps 745 mmHg 60%
14:00 +14°C° 0 mm 5 mps 745 mmHg 62%
15:00 +13°C° 0 mm 4 mps 745 mmHg 63%
16:00 +13°C° 0 mm 4 mps 744 mmHg 64%
17:00 +12°C° 0 mm 4 mps 744 mmHg 65%
18:00 +12°C° 0 mm 4 mps 745 mmHg 65%
19:00 +12°C° 0 mm 4 mps 745 mmHg 65%
20:00 +12°C° 0 mm 4 mps 745 mmHg 66%
21:00 +11°C° 0 mm 4 mps 745 mmHg 67%
22:00 +11°C° 0 mm 4 mps 744 mmHg 68%
23:00 +11°C° 0 mm 4 mps 744 mmHg 69%

2 October, Friday

Time Temperature Precipitation Wind Pressure Humidity
00:00 +11°C° 0 mm 4 mps 744 mmHg 70%
01:00 +11°C° 0 mm 4 mps 744 mmHg 71%
02:00 +10°C° 0 mm 5 mps 744 mmHg 72%
03:00 +10°C° 0 mm 5 mps 744 mmHg 71%
04:00 +11°C° 0 mm 4 mps 744 mmHg 69%
05:00 +11°C° 0 mm 4 mps 744 mmHg 68%
06:00 +10°C° 0 mm 5 mps 744 mmHg 67%
07:00 +10°C° 0 mm 5 mps 744 mmHg 67%
08:00 +11°C° 0 mm 6 mps 744 mmHg 66%
09:00 +13°C° 0 mm 6 mps 744 mmHg 65%
10:00 +14°C° 0 mm 6 mps 744 mmHg 63%
11:00 +15°C° 0 mm 7 mps 744 mmHg 61%
12:00 +16°C° 0 mm 7 mps 744 mmHg 61%
13:00 +16°C° 0 mm 7 mps 744 mmHg 61%
14:00 +16°C° 0 mm 7 mps 744 mmHg 61%
15:00 +15°C° 0 mm 6 mps 744 mmHg 62%
16:00 +14°C° 0 mm 6 mps 744 mmHg 63%
17:00 +13°C° 0 mm 5 mps 744 mmHg 64%
18:00 +13°C° 0 mm 5 mps 744 mmHg 65%
19:00 +13°C° 0 mm 5 mps 744 mmHg 66%
20:00 +12°C° 0 mm 5 mps 744 mmHg 66%
21:00 +12°C° 0 mm 5 mps 744 mmHg 67%
22:00 +12°C° 0 mm 4 mps 744 mmHg 68%
23:00 +12°C° 0 mm 4 mps 744 mmHg 69%

3 October, Saturday

Time Temperature Precipitation Wind Pressure Humidity
00:00 +12°C° 0 mm 4 mps 744 mmHg 69%
01:00 +12°C° 0 mm 4 mps 744 mmHg 68%
02:00 +12°C° 0 mm 4 mps 743 mmHg 68%
03:00 +12°C° 0 mm 4 mps 743 mmHg 67%
04:00 +12°C° 0 mm 4 mps 743 mmHg 67%
05:00 +12°C° 0 mm 4 mps 743 mmHg 66%
06:00 +12°C° 0 mm 4 mps 743 mmHg 66%
07:00 +12°C° 0 mm 4 mps 743 mmHg 66%
08:00 +12°C° 0 mm 4 mps 743 mmHg 65%
09:00 +13°C° 0 mm 5 mps 743 mmHg 66%
10:00 +13°C° 0 mm 5 mps 743 mmHg 67%
11:00 +13°C° 0 mm 6 mps 743 mmHg 67%
12:00 +12°C° 0.1 mm 5 mps 743 mmHg 74%
13:00 +12°C° 0.1 mm 5 mps 743 mmHg 80%
14:00 +10°C° 0.1 mm 5 mps 743 mmHg 86%
15:00 +11°C° 0.2 mm 4 mps 743 mmHg 88%
16:00 +11°C° 0.2 mm 4 mps 743 mmHg 90%
17:00 +12°C° 0.2 mm 4 mps 743 mmHg 92%
18:00 +12°C° 0 mm 4 mps 743 mmHg 93%
19:00 +12°C° 0 mm 4 mps 743 mmHg 93%
20:00 +12°C° 0 mm 3 mps 743 mmHg 94%
21:00 +12°C° 0.3 mm 4 mps 743 mmHg 94%
22:00 +12°C° 0.3 mm 4 mps 743 mmHg 95%
23:00 +12°C° 0.3 mm 4 mps 743 mmHg 95%
Show more